Location: Kerentrech
(47.7567°N, 3.3595°W)
Time: 14:19:39
(UTC+00:00)

COSMOS 2428 - Pass Details

Date: 17 February 2020
Orbit: 846 x 856 km, 70.9° (Epoch: 28 March)

Event Time Altitude Azimuth Distance (km) Brightness Sun altitude
Exits shadow 04:28:29 23° 346° (NNW) 1,745 4.3 -28.8°
Drops below altitude 10° 04:31:24 10° 12° (NNE) 2,500 5.4 -28.4°
Sets 04:34:14 0° 24° (NNE) 3,440 6.4 -27.9°
